Regional Weather Roundup
Issued by NWS New Orleans/Baton Rouge, LA

Home | Current Version | Previous Version | Text Only | Print | Product List | Glossary On
Versions: 1 2 3 4 5 6 7 8 9 10 11 12 13 14 15 16 17 18 19 20 21 22 23 24 25 26 27 28 29 30 31 32 33 34 35 36 37 38 39 40 41 42 43 44 45 46 47 48 49 50
000
ASUS44 KLIX 280210
RWRLIX
NEW ORLEANS REGIONAL WEATHER ROUNDUP
NATIONAL WEATHER SERVICE NEW ORLEANS LA
900 PM CDT WED AUG 27 2014

NOTE: "FAIR" INDICATES FEW OR NO CLOUDS BELOW 12,000 FEET WITH NO
      SIGNIFICANT WEATHER AND/OR OBSTRUCTIONS TO VISIBILITY.
      SKY/WX - SKY CONDITION AND SIGNIFICANT WEATHER.
      TMP - AIR TEMPERATURE.     DP    - DEWPOINT TEMPERATURE.
      RH  - RELATIVE HUMIDITY.   PRES  - PRESSURE.
      HI  - HEAT INDEX.          WCI   - WIND CHILL INDEX.

*  THESE STATIONS ARE NOT NWS OR FAA STATIONS AND ARE NOT UNDER
   NWS QUALITY CONTROL.

LAZ038-040-048-061>063-065>067-069-280300-
SOUTHEAST LOUISIANA

CITY           SKY/WX    TMP DP  RH WIND       PRES   REMARKS
N.O. AUDUBON   NOT AVBL
N.O. INTL ARPT MOCLDY    83  75  77 SE6       29.98S
N.O. LAKEFRONT PTCLDY    83  75  77 SE7       29.99R
N.O. DOWNTOWN*   N/A     82  72  69 SE3       29.99S
SLIDELL        PTCLDY    80  76  87 CALM      29.98S
BATON ROUGE    MOCLDY    82  73  74 S6        29.99R
BOOTHVILLE     MOCLDY    82  76  81 SE3       29.99R
BELLE CHASSE   MOCLDY    82  74  76 SE5       29.98S
BOGALUSA*      CLOUDY    81  74  79 CALM      30.01S
GALLIANO*      NOT AVBL
NEW ROADS*       N/A     79  75  87 CALM      29.99R
GONZALES*        N/A     78  78 100 CALM      29.98S
HAMMOND*       MOCLDY    82  73  74 CALM      30.00S
HOUMA*         PTCLDY    78  72  80 CALM      29.98S
PORT FOURCHON* PTCLDY    84  77  79 SE9       29.99R

$$

MSZ070-080>082-280300-
SOUTHERN MISSISSIPPI

CITY           SKY/WX    TMP DP  RH WIND       PRES   REMARKS
MCCOMB         PTCLDY    79  71  76 SE5       30.01R
GULFPORT       PTCLDY    84  72  67 S5        29.99R
BILOXI         PTCLDY    84  72  66 S5        29.99S
PASCAGOULA     CLOUDY    80  73  79 CALM      30.00R
STENNIS ARPT*  PTCLDY   N/A N/A N/A CALM      29.99R

$$

COASTAL OBSERVATIONS
LAKE AND NEARSHORE STATIONS

STATION/POSITION TIME  TEMP    WIND        PRES    WAVE
                       AIR SEA DIR/SP/G            HT/PER
                 (UTC) (F)     (DEG/KT/KT) (MB)    (FT/S)
PASCAGOULA       0200   85     180/  5/  8 1015.2
WAVELAND YACHT   0200   85     150/  9/ 10 1014.9
GRAND ISLE       0200   83 84  130/  5/  8 1015.9
SOUTHWEST PASS   0200   84 89  120/ 14/ 17 1015.6
NEW CANAL        0200   83 84  120/  2/  6 1015.7
SHELL BEACH      0200   82 81  140/  4/  5 1015.1

OFFSHORE STATIONS

STATION/POSITION TIME  TEMP    WIND        PRES    WAVE
                       AIR SEA DIR/SP/G            HT/PER
                 (UTC) (F)     (DEG/KT/KT) (MB)    (FT/S)
64 S DAUPHIN ISL 0200   85 85  100/ 10/ 12 1015.5

$$



USA.gov is the U.S. government's official web portal to all federal, state and local government web resources and services.